| time (UTC) | temp F | wind direction | speed MPH | gust MPH | rain 1hr in | rain 24hr in | rain mn in | humidity % | barometer mb |
| 20260507094525 | 51 | 199 | 0.0 | 0.0 | 0.00 | 0.00 | 0.00 | 89 | 1021.6 |
| 20260507093024 | 51 | 199 | 0.0 | 2.0 | 0.00 | 0.00 | 0.00 | 89 | 1021.6 |
| 20260507091533 | 51 | 182 | 0.0 | 2.0 | 0.00 | 0.00 | 0.00 | 90 | 1021.6 |
| 20260507090017 | 51 | 178 | 0.0 | 2.0 | 0.00 | 0.00 | 0.00 | 89 | 1021.6 |
| 20260507084521 | 51 | 236 | 0.0 | 2.0 | 0.00 | 0.00 | 0.00 | 90 | 1021.6 |
| 20260507083025 | 51 | 163 | 0.0 | 4.0 | 0.00 | 0.00 | 0.00 | 90 | 1021.6 |
| 20260507081530 | 51 | 236 | 0.0 | 0.0 | 0.00 | 0.00 | 0.00 | 90 | 1021.5 |
| 20260507080015 | 50 | 148 | 0.0 | 2.0 | 0.00 | 0.00 | 0.00 | 91 | 1021.4 |
| 20260507074516 | 50 | 148 | 0.0 | 1.0 | 0.00 | 0.00 | 0.00 | 90 | 1021.4 |
| 20260507073006 | 49 | 148 | 0.0 | 0.0 | 0.00 | 0.00 | 0.00 | 90 | 1021.4 |
| 20260507071505 | 50 | 148 | 0.0 | 0.0 | 0.00 | 0.00 | 0.00 | 90 | 1021.2 |
| 20260507070013 | 50 | 148 | 0.0 | 0.0 | 0.00 | 0.00 | 0.00 | 90 | 1021.3 |
| 20260507064528 | 50 | 148 | 0.0 | 0.0 | 0.00 | 0.00 | 0.00 | 89 | 1021.0 |
| 20260507063020 | 51 | 148 | 0.0 | 0.0 | 0.00 | 0.00 | 0.00 | 88 | 1021.1 |
| 20260507061504 | 51 | 148 | 0.0 | 0.0 | 0.00 | 0.00 | 0.00 | 88 | 1021.3 |
| 20260507060008 | 52 | 148 | 0.0 | 0.0 | 0.00 | 0.00 | 0.00 | 87 | 1021.3 |
| 20260507054516 | 53 | 148 | 0.0 | 3.0 | 0.00 | 0.00 | 0.00 | 87 | 1021.2 |
| 20260507053019 | 53 | 167 | 0.0 | 0.0 | 0.00 | 0.00 | 0.00 | 86 | 1021.3 |
| 20260507051522 | 53 | 167 | 0.0 | 0.0 | 0.00 | 0.00 | 0.00 | 86 | 1021.4 |
| 20260507050010 | 53 | 167 | 0.0 | 0.0 | 0.00 | 0.00 | 0.00 | 86 | 1021.5 |
| 20260507044510 | 54 | 167 | 0.0 | 0.0 | 0.00 | 0.00 | 0.00 | 86 | 1021.4 |
| 20260507043016 | 54 | 167 | 0.0 | 0.0 | 0.00 | 0.00 | 0.00 | 85 | 1021.4 |
| 20260507041526 | 54 | 167 | 0.0 | 0.0 | 0.00 | 0.00 | 0.00 | 85 | 1021.2 |
| 20260507040021 | 54 | 167 | 0.0 | 0.0 | 0.00 | 0.00 | 0.00 | 85 | 1021.3 |
| 20260507034508 | 54 | 167 | 0.0 | 0.0 | 0.00 | 0.00 | 0.00 | 84 | 1021.3 |
| 20260507033012 | 55 | 167 | 0.0 | 0.0 | 0.00 | 0.00 | 0.00 | 84 | 1021.1 |
| 20260507031518 | 55 | 167 | 0.0 | 0.0 | 0.00 | 0.00 | 0.00 | 83 | 1021.0 |
| 20260507030028 | 55 | 167 | 0.0 | 1.0 | 0.00 | 0.00 | 0.00 | 83 | 1021.0 |
| 20260507024527 | 55 | 167 | 0.0 | 0.0 | 0.00 | 0.00 | 0.00 | 82 | 1020.9 |
| 20260507023017 | 55 | 167 | 0.0 | 0.0 | 0.00 | 0.00 | 0.00 | 80 | 1020.9 |
| 20260507021514 | 55 | 167 | 0.0 | 1.0 | 0.00 | 0.00 | 0.00 | 80 | 1020.8 |
| 20260507020019 | 56 | 159 | 0.0 | 4.0 | 0.00 | 0.00 | 0.00 | 80 | 1020.8 |
| 20260507014524 | 56 | 165 | 0.0 | 2.0 | 0.00 | 0.00 | 0.00 | 80 | 1020.8 |
| 20260507013023 | 56 | 190 | 0.0 | 1.0 | 0.00 | 0.00 | 0.00 | 79 | 1020.8 |
| 20260507011512 | 56 | 188 | 0.0 | 2.0 | 0.00 | 0.00 | 0.00 | 79 | 1020.8 |
| 20260507010020 | 56 | 200 | 0.0 | 1.0 | 0.00 | 0.00 | 0.00 | 79 | 1020.9 |
| 20260507004523 | 56 | 290 | 0.0 | 3.0 | 0.00 | 0.00 | 0.00 | 79 | 1020.9 |
| 20260507003026 | 56 | 284 | 0.0 | 4.0 | 0.00 | 0.00 | 0.00 | 79 | 1021.0 |
| 20260507001515 | 56 | 325 | 0.0 | 6.0 | 0.00 | 0.00 | 0.00 | 78 | 1021.0 |
| 20260507000016 | 56 | 52 | 0.0 | 4.0 | 0.00 | 0.00 | 0.00 | 78 | 1020.9 |
| 20260506234527 | 56 | 179 | 0.0 | 3.0 | 0.00 | 0.00 | 0.00 | 78 | 1021.0 |
| 20260506233025 | 56 | 136 | 0.0 | 8.0 | 0.00 | 0.00 | 0.00 | 77 | 1021.0 |
| 20260506231527 | 56 | 150 | 0.0 | 7.0 | 0.00 | 0.00 | 0.00 | 78 | 1021.0 |
| 20260506230019 | 56 | 232 | 1.0 | 8.0 | 0.00 | 0.00 | 0.00 | 79 | 1021.0 |
| 20260506224516 | 56 | 114 | 1.0 | 7.0 | 0.00 | 0.00 | 0.00 | 80 | 1021.1 |
| 20260506223022 | 56 | 147 | 0.0 | 5.0 | 0.00 | 0.00 | 0.00 | 81 | 1021.1 |
| 20260506221504 | 56 | 164 | 0.0 | 5.0 | 0.00 | 0.00 | 0.00 | 81 | 1021.3 |
| 20260506220012 | 55 | 264 | 0.0 | 7.0 | 0.00 | 0.00 | 0.00 | 81 | 1021.2 |
| 20260506214515 | 55 | 249 | 0.0 | 4.0 | 0.00 | 0.00 | 0.00 | 83 | 1021.3 |
| 20260506213021 | 55 | 216 | 2.0 | 7.0 | 0.00 | 0.00 | 0.00 | 84 | 1021.3 |
| 20260506211529 | 55 | 227 | 0.0 | 3.0 | 0.00 | 0.00 | 0.00 | 86 | 1021.4 |
| 20260506210006 | 55 | 157 | 2.0 | 6.0 | 0.00 | 0.00 | 0.00 | 85 | 1021.2 |
| 20260506204510 | 55 | 167 | 0.0 | 7.0 | 0.00 | 0.00 | 0.00 | 85 | 1021.2 |
| 20260506203021 | 55 | 220 | 1.0 | 4.0 | 0.00 | 0.00 | 0.00 | 84 | 1021.2 |
| 20260506201529 | 56 | 244 | 1.0 | 4.0 | 0.00 | 0.00 | 0.00 | 83 | 1021.2 |
| 20260506200025 | 56 | 254 | 0.0 | 4.0 | 0.00 | 0.00 | 0.00 | 82 | 1020.9 |
| 20260506194508 | 56 | 245 | 2.0 | 7.0 | 0.00 | 0.00 | 0.00 | 83 | 1020.8 |
| 20260506193012 | 55 | 134 | 0.0 | 4.0 | 0.00 | 0.00 | 0.00 | 84 | 1020.9 |
| 20260506191520 | 55 | 236 | 0.0 | 6.0 | 0.00 | 0.00 | 0.00 | 85 | 1020.8 |
| 20260506190028 | 55 | 230 | 0.0 | 7.0 | 0.00 | 0.00 | 0.00 | 85 | 1020.8 |
| 20260506184527 | 55 | 169 | 0.0 | 9.0 | 0.00 | 0.00 | 0.00 | 86 | 1020.8 |
| 20260506183010 | 54 | 212 | 0.0 | 8.0 | 0.00 | 0.00 | 0.00 | 87 | 1020.7 |
| 20260506181515 | 54 | 259 | 2.0 | 4.0 | 0.00 | 0.00 | 0.00 | 88 | 1020.8 |
| 20260506180025 | 54 | 191 | 0.0 | 5.0 | 0.00 | 0.00 | 0.00 | 88 | 1020.4 |
| 20260506174528 | 54 | 246 | 0.0 | 5.0 | 0.00 | 0.00 | 0.00 | 89 | 1020.4 |
| 20260506173028 | 54 | 142 | 0.0 | 3.0 | 0.00 | 0.00 | 0.00 | 90 | 1020.6 |
| 20260506171522 | 54 | 130 | 1.0 | 5.0 | 0.00 | 0.00 | 0.00 | 89 | 1020.6 |
| 20260506170016 | 54 | 117 | 1.0 | 4.0 | 0.00 | 0.00 | 0.00 | 90 | 1020.6 |
| 20260506164524 | 54 | 146 | 0.0 | 3.0 | 0.00 | 0.00 | 0.00 | 90 | 1020.3 |
| 20260506163027 | 54 | 160 | 0.0 | 1.0 | 0.00 | 0.00 | 0.00 | 90 | 1020.2 |
| 20260506161528 | 54 | 170 | 0.0 | 0.0 | 0.00 | 0.00 | 0.00 | 90 | 1020.2 |
| 20260506160016 | 54 | 170 | 0.0 | 1.0 | 0.00 | 0.00 | 0.00 | 90 | 1019.9 |
| 20260506154521 | 53 | 161 | 0.0 | 2.0 | 0.00 | 0.00 | 0.00 | 89 | 1019.9 |
| 20260506153022 | 53 | 158 | 0.0 | 2.0 | 0.00 | 0.00 | 0.00 | 90 | 1020.3 |
| 20260506151530 | 53 | 159 | 0.0 | 3.0 | 0.00 | 0.00 | 0.00 | 89 | 1020.1 |
| 20260506150030 | 53 | 155 | 0.0 | 4.0 | 0.00 | 0.00 | 0.00 | 89 | 1019.9 |
| 20260506144516 | 53 | 149 | 2.0 | 7.0 | 0.00 | 0.00 | 0.00 | 89 | 1019.9 |
| 20260506143023 | 53 | 154 | 0.0 | 0.0 | 0.00 | 0.00 | 0.00 | 89 | 1019.8 |
| 20260506141524 | 53 | 152 | 0.0 | 3.0 | 0.00 | 0.00 | 0.00 | 89 | 1019.9 |
| 20260506140016 | 53 | 144 | 0.0 | 1.0 | 0.00 | 0.00 | 0.00 | 89 | 1019.8 |
| 20260506134514 | 53 | 185 | 0.0 | 1.0 | 0.00 | 0.00 | 0.00 | 89 | 1019.8 |
| 20260506133027 | 53 | 185 | 0.0 | 1.0 | 0.00 | 0.00 | 0.00 | 89 | 1019.6 |
| 20260506131521 | 53 | 184 | 0.0 | 2.0 | 0.00 | 0.00 | 0.00 | 89 | 1019.4 |
| 20260506130028 | 53 | 160 | 0.0 | 2.0 | 0.00 | 0.00 | 0.00 | 89 | 1019.1 |
| 20260506124508 | 53 | 158 | 1.0 | 4.0 | 0.00 | 0.00 | 0.00 | 89 | 1019.2 |
| 20260506123016 | 53 | 153 | 0.0 | 2.0 | 0.00 | 0.00 | 0.00 | 89 | 1019.0 |
| 20260506121522 | 53 | 153 | 0.0 | 5.0 | 0.00 | 0.00 | 0.00 | 90 | 1018.9 |
| 20260506120027 | 53 | 173 | 0.0 | 0.0 | 0.00 | 0.00 | 0.00 | 90 | 1019.0 |
| 20260506114527 | 52 | 173 | 0.0 | 0.0 | 0.00 | 0.00 | 0.00 | 90 | 1018.9 |
| 20260506113014 | 52 | 173 | 0.0 | 1.0 | 0.00 | 0.00 | 0.00 | 91 | 1018.7 |
| 20260506111516 | 52 | 165 | 0.0 | 2.0 | 0.00 | 0.00 | 0.00 | 91 | 1018.6 |
| 20260506110027 | 52 | 170 | 0.0 | 4.0 | 0.00 | 0.00 | 0.00 | 92 | 1018.5 |
| 20260506104525 | 52 | 331 | 0.0 | 0.0 | 0.00 | 0.00 | 0.00 | 92 | 1018.4 |
| 20260506103010 | 51 | 331 | 0.0 | 0.0 | 0.00 | 0.00 | 0.00 | 92 | 1018.3 |
| 20260506101517 | 51 | 331 | 0.0 | 0.0 | 0.00 | 0.00 | 0.00 | 92 | 1018.2 |
| 20260506100024 | 51 | 331 | 0.0 | 0.0 | 0.00 | 0.00 | 0.00 | 92 | 1018.1 |